Location: Unspecified
(33.9239°N, 118.0544°W)
Time: 13:51:30
(UTC-07:00)

Cosmos 1674 - Visible Passes

Search period start: 29 July 2014 00:00
Search period end: 08 August 2014 00:00
Orbit: 515 x 544 km, 82.5° (Epoch: 29 July)

Date Brightness Start Highest point End Pass type
(mag) Time Alt. Az. Time Alt. Az. Time Alt. Az.
29 Jul 3.2 04:25:21 10° N 04:29:10 60° E 04:32:55 10° SSE visible
30 Jul 3.3 04:14:42 10° N 04:18:29 55° E 04:21:47 13° SSE visible
31 Jul 3.5 04:04:02 10° N 04:07:47 50° E 04:10:06 21° SSE visible
01 Aug 3.7 03:53:23 10° N 03:57:06 45° E 03:58:33 30° SE visible
02 Aug 3.8 03:42:45 10° N 03:46:23 41° E 03:47:05 37° ESE visible
03 Aug 4.0 03:32:06 10° N 03:35:41 37° E 03:35:42 37° E visible
04 Aug 4.4 03:21:27 10° NNE 03:24:23 32° ENE 03:24:23 32° ENE visible
04 Aug 5.0 04:59:30 10° WNW 04:59:38 10° WNW 04:59:38 10° WNW visible
05 Aug 4.8 03:10:49 10° NNE 03:13:08 26° NE 03:13:08 26° NE visible
05 Aug 5.1 04:48:23 10° WNW 04:48:23 10° WNW 04:48:23 10° WNW visible
06 Aug 5.2 03:00:11 10° NNE 03:01:56 21° NE 03:01:56 21° NE visible
07 Aug 5.5 02:49:33 10° NNE 02:50:46 17° NNE 02:50:46 17° NNE visible
